���t,�ăh��,���[��,���h��
"2024/3/28","152.02","164.43","99.28"
"2024/3/27","152.07","164.65","99.38"
"2024/3/26","151.83","164.54","99.53"
"2024/3/25","151.93","164.10","99.14"
"2024/3/22","152.09","165.20","100.17"
"2024/3/21","151.29","165.31","100.19"
"2024/3/19","149.78","162.75","98.28"
"2024/3/18","149.82","163.08","98.45"
"2024/3/15","149.09","162.18","98.12"
"2024/3/14","148.18","162.18","98.35"
"2024/3/13","148.03","161.68","97.91"
"2024/3/12","147.35","160.96","97.69"
"2024/3/11","147.32","161.18","97.77"
"2024/3/8","148.36","162.44","98.49"
"2024/3/7","149.52","162.92","98.42"
"2024/3/6","150.55","163.33","97.96"
"2024/3/5","150.92","163.77","98.39"
"2024/3/4","150.58","163.31","98.56"
"2024/3/1","150.81","162.97","98.28"
"2024/2/29","151.17","163.75","98.38"
"2024/2/28","151.00","163.70","99.05"
"2024/2/27","151.16","163.91","98.90"
"2024/2/26","150.86","163.17","99.03"
"2024/2/22","151.05","163.56","99.26"
"2024/2/21","150.66","162.84","98.91"
"2024/2/20","150.88","162.44","98.71"
"2024/2/19","150.53","162.31","98.74"
"2024/2/16","150.76","162.25","98.38"
"2024/2/15","150.99","162.02","98.11"
"2024/2/14","151.18","161.95","97.76"
"2024/2/13","149.89","161.42","98.01"
"2024/2/9","150.03","161.59","97.52"
"2024/2/8","148.65","160.18","97.17"
"2024/2/7","148.38","159.62","97.04"
"2024/2/6","149.18","160.26","96.90"
"2024/2/5","149.26","160.77","97.05"
"2024/2/2","146.99","159.84","96.91"
"2024/2/1","147.35","159.27","97.10"
"2024/1/31","148.05","160.47","97.66"
"2024/1/30","147.88","160.30","98.11"
"2024/1/29","148.75","161.23","97.99"
"2024/1/26","148.20","160.67","97.73"
"2024/1/25","148.36","161.31","97.67"
"2024/1/24","148.67","161.40","97.97"
"2024/1/23","148.65","161.73","98.01"
"2024/1/22","148.70","162.02","98.36"
"2024/1/19","148.69","161.75","98.07"
"2024/1/18","148.76","161.91","97.60"
"2024/1/17","147.94","160.87","97.69"
"2024/1/16","146.41","159.92","97.25"
"2024/1/15","145.67","159.52","97.63"
"2024/1/12","145.82","160.05","97.86"
"2024/1/11","146.15","160.31","98.20"
"2024/1/10","145.19","158.70","97.30"
"2024/1/9","144.48","158.20","97.31"
"2024/1/5","145.52","159.31","97.81"
"2024/1/4","143.94","157.09","96.98"
"2023/12/29","142.33","157.62","97.44"
"2023/12/28","142.34","158.16","97.82"
"2023/12/27","143.29","158.10","97.90"
"2023/12/26","142.77","157.24","97.31"
"2023/12/25","142.72","156.84","97.17"
"2023/12/22","142.84","157.06","97.18"
"2023/12/21","143.98","157.52","97.23"
"2023/12/20","144.53","158.57","97.76"
"2023/12/19","143.19","156.29","96.29"
"2023/12/18","142.70","155.50","95.87"
"2023/12/15","143.00","156.98","95.95"
"2023/12/14","142.99","155.66","95.85"
"2023/12/13","146.13","157.68","96.06"
"2023/12/12","146.38","157.50","96.34"
"2023/12/11","145.90","157.08","96.09"
"2023/12/8","143.75","155.18","95.12"
"2023/12/7","147.67","158.99","96.96"
"2023/12/6","147.76","159.47","97.24"
"2023/12/5","147.65","160.03","97.87"
"2023/12/4","146.90","159.67","98.32"
"2023/12/1","148.38","161.72","98.29"
"2023/11/30","147.57","162.01","97.95"
"2023/11/29","147.44","162.22","98.30"
"2023/11/28","148.65","162.80","98.47"
"2023/11/27","150.02","163.91","98.85"
"2023/11/24","150.13","163.73","98.75"
"2023/11/22","148.85","162.47","97.80"
"2023/11/21","148.68","162.71","97.84"
"2023/11/20","150.45","164.04","98.07"
"2023/11/17","151.26","164.12","98.00"
"2023/11/16","151.84","164.69","98.80"
"2023/11/15","151.16","164.30","98.22"
"2023/11/14","152.27","162.89","97.31"
"2023/11/13","152.21","162.57","96.85"
"2023/11/10","151.93","162.06","96.73"
"2023/11/9","151.58","162.19","97.24"
"2023/11/8","151.17","161.60","97.29"
"2023/11/7","150.60","161.29","97.78"
"2023/11/6","150.17","160.98","98.00"
"2023/11/2","151.12","160.10","97.35"
"2023/11/1","151.97","160.63","96.32"
"2023/10/31","150.01","159.16","95.69"
"2023/10/30","150.36","158.81","95.60"
"2023/10/27","150.88","159.18","95.74"
"2023/10/26","150.78","159.20","94.89"
"2023/10/25","150.49","159.37","96.28"
"2023/10/24","150.26","160.31","95.45"
"2023/10/23","150.39","159.20","95.16"
"2023/10/20","150.46","159.05","95.23"
"2023/10/19","150.38","158.41","95.21"
"2023/10/18","150.35","158.79","95.70"
"2023/10/17","150.09","158.42","95.59"
"2023/10/16","150.10","157.85","94.82"
"2023/10/13","150.44","158.46","95.28"
"2023/10/12","149.76","159.03","96.28"
"2023/10/11","149.16","158.23","96.22"
"2023/10/10","149.10","157.66","95.92"
"2023/10/6","149.25","157.34","95.27"
"2023/10/5","149.37","157.05","94.81"
"2023/10/4","149.80","156.83","94.68"
"2023/10/3","150.42","157.54","95.89"
"2023/10/2","150.29","158.77","96.84"
"2023/9/29","150.08","158.50","96.56"
"2023/9/28","150.15","157.83","95.68"
"2023/9/27","149.58","157.85","95.69"
"2023/9/26","149.45","158.16","96.11"
"2023/9/25","149.00","158.73","96.12"
"2023/9/22","148.17","157.90","95.13"
"2023/9/21","148.93","158.27","95.85"
"2023/9/20","148.34","158.45","95.98"
"2023/9/19","148.23","158.41","95.56"
"2023/9/15","148.12","157.51","95.67"
"2023/9/14","147.67","158.56","95.40"
"2023/9/13","147.82","159.06","95.14"
"2023/9/12","147.22","158.21","94.75"
"2023/9/11","147.47","157.98","94.50"
"2023/9/8","147.51","157.99","94.32"
"2023/9/7","148.44","159.09","94.81"
"2023/9/6","148.36","158.96","94.61"
"2023/9/5","147.06","158.67","95.05"
"2023/9/4","146.77","158.16","95.02"
"2023/9/1","146.23","158.41","94.86"
"2023/8/31","146.70","160.34","95.28"
"2023/8/30","146.55","159.26","95.08"
"2023/8/29","147.03","159.03","94.59"
"2023/8/28","147.05","158.77","94.61"
"2023/8/25","146.72","158.36","94.33"
"2023/8/24","145.36","157.99","94.33"
"2023/8/23","146.22","158.55","94.23"
"2023/8/22","146.77","159.88","94.22"
"2023/8/21","145.83","158.62","93.70"
"2023/8/18","146.21","159.15","93.99"
"2023/8/17","146.99","159.71","94.30"
"2023/8/16","146.22","159.36","94.43"
"2023/8/15","146.10","159.28","94.97"
"2023/8/14","145.61","159.21","94.55"
"2023/8/10","144.46","158.47","94.58"
"2023/8/9","143.96","157.75","94.21"
"2023/8/8","143.56","157.75","94.50"
"2023/8/7","142.20","156.46","93.71"
"2023/8/4","143.38","156.97","94.30"
"2023/8/3","143.97","157.44","94.24"
"2023/8/2","143.73","157.98","95.30"
"2023/8/1","142.95","157.01","96.14"
"2023/7/31","141.47","155.85","94.46"
"2023/7/28","140.03","153.69","94.01"
"2023/7/27","140.84","155.98","95.47"
"2023/7/26","141.61","156.34","96.14"
"2023/7/25","142.08","157.20","95.83"
"2023/7/24","142.33","158.34","95.92"
"2023/7/21","140.59","156.46","95.44"
"2023/7/20","140.20","157.23","95.31"
"2023/7/19","139.54","156.61","95.14"
"2023/7/18","139.38","156.67","95.16"
"2023/7/14","138.54","155.39","95.51"
"2023/7/13","139.18","154.96","94.69"
"2023/7/12","140.39","154.66","94.39"
"2023/7/11","141.96","156.19","95.12"
"2023/7/10","143.04","156.80","95.76"
"2023/7/7","144.65","157.38","95.93"
"2023/7/6","144.94","157.16","96.57"
"2023/7/5","145.06","157.87","97.23"
"2023/7/4","145.06","158.21","97.09"
"2023/7/3","145.01","158.03","96.69"
"2023/6/30","145.49","158.10","96.27"
"2023/6/29","144.85","157.86","95.70"
"2023/6/28","144.37","158.02","96.35"
"2023/6/27","144.13","157.09","96.43"
"2023/6/26","143.99","156.98","96.27"
"2023/6/23","143.67","157.37","97.33"
"2023/6/22","142.47","156.50","97.01"
"2023/6/21","142.15","155.15","96.62"
"2023/6/20","142.73","155.77","97.93"
"2023/6/19","142.47","155.72","97.86"
"2023/6/16","140.82","154.01","96.97"
"2023/6/15","140.89","152.65","95.87"
"2023/6/14","140.57","151.62","95.30"
"2023/6/13","140.20","150.83","94.77"
"2023/6/12","139.93","150.32","94.59"
"2023/6/9","139.65","150.50","93.93"
"2023/6/8","140.50","150.41","93.81"
"2023/6/7","140.01","149.76","93.71"
"2023/6/6","140.10","150.08","92.85"
"2023/6/5","140.68","150.39","92.96"
"2023/6/2","139.49","150.08","91.91"
"2023/6/1","139.69","149.20","90.92"
"2023/5/31","140.27","150.54","91.57"
"2023/5/30","140.77","150.66","92.17"
"2023/5/29","141.27","151.34","92.38"
"2023/5/26","140.39","150.48","91.32"
"2023/5/25","140.04","150.48","91.76"
"2023/5/24","139.13","149.82","92.12"
"2023/5/23","138.98","150.27","92.73"
"2023/5/22","138.22","149.51","92.26"
"2023/5/19","138.91","149.65","92.29"
"2023/5/18","138.12","149.69","92.15"
"2023/5/17","136.99","148.85","91.38"
"2023/5/16","136.55","148.54","91.75"
"2023/5/15","136.55","148.16","91.03"
"2023/5/12","135.13","147.46","90.73"
"2023/5/11","134.68","147.96","91.59"
"2023/5/10","135.65","148.73","91.90"
"2023/5/9","135.83","149.16","92.24"
"2023/5/8","135.64","149.42","91.64"
"2023/5/2","138.17","151.61","91.69"
"2023/5/1","137.34","151.05","91.03"
"2023/4/28","134.63","148.54","89.48"
"2023/4/27","134.22","148.13","88.84"
"2023/4/26","134.30","147.27","89.21"
"2023/4/25","134.84","149.17","90.48"
"2023/4/24","134.62","147.92","90.23"
"2023/4/21","134.82","147.85","91.03"
"2023/4/20","135.42","148.32","91.00"
"2023/4/19","134.63","147.77","90.88"
"2023/4/18","134.97","147.42","90.59"
"2023/4/17","134.39","147.50","90.25"
"2023/4/14","133.10","147.10","90.48"
"2023/4/13","133.82","147.14","89.73"
"2023/4/12","134.28","146.67","89.58"
"2023/4/11","133.98","145.69","89.33"
"2023/4/10","133.12","145.14","88.86"
"2023/4/7","132.28","144.30","88.40"
"2023/4/6","131.69","143.39","88.50"
"2023/4/5","132.07","144.69","89.40"
"2023/4/4","133.12","145.02","90.48"
"2023/4/3","133.65","144.38","89.23"
"2023/3/31","134.03","146.22","90.19"
"2023/3/30","133.05","144.14","88.90"
